Theta_e
313 314 314 315 315 315 316 316 316 317 317 317 318 318 319 319 319 318 318 319 319 319 318 318 317 318 318 318 319 318 318 309 306 303 302 304 310 313 313 314 315 315 316 310 304 301 299 303 302 302 303 299 303 300 303 302 309 310 303 302 297 298 297 303 303 307 306 303 304 306 306 303 300 304 305 307 303 301 301 300 300 300 298 299 299 301 302 303
313 314 314 314 314 315 315 316 316 317 317 317 318 318 319 319 319 319 317 318 319 319 319 318 318 317 319 318 319 318 313 308 303 302 302 310 313 313 313 315 315 314 315 304 301 299 297 301 301 302 300 295 307 300 302 302 309 301 300 300 297 299 305 309 308 306 305 303 306 306 307 305 303 306 307 301 299 300 299 299 300 299 298 299 299 300 301 302
313 313 313 314 314 314 315 315 316 316 316 317 317 318 318 319 319 319 317 318 319 319 319 318 317 318 319 319 319 316 309 305 303 297 302 313 313 314 315 315 314 315 309 303 303 300 298 297 299 300 302 296 297 297 299 298 304 302 299 294 296 308 309 310 310 308 308 308 305 306 307 307 307 305 304 297 294 294 290 292 295 294 294 295 296 299 300 301
313 313 313 313 314 314 315 315 316 316 316 316 317 318 318 319 319 319 318 317 319 318 318 318 318 319 319 319 317 314 310 304 294 298 303 312 313 314 314 313 314 313 309 304 303 301 302 300 300 299 299 295 294 301 294 298 299 301 297 293 298 308 306 308 310 309 309 309 306 305 305 303 305 304 302 298 295 292 291 292 291 291 293 294 296 298 300 299
312 313 313 313 313 314 314 315 315 316 316 317 317 318 318 319 319 319 318 317 318 317 317 318 318 319 319 319 316 310 305 295 293 300 304 312 313 314 313 312 313 310 308 304 303 303 301 298 299 300 298 293 294 296 294 299 300 299 298 306 309 309 306 309 309 309 308 307 304 300 296 294 297 296 300 301 295 289 291 292 293 293 294 293 295 298 299 299
312 312 312 313 313 313 313 314 315 316 317 317 317 318 318 319 319 318 318 318 318 317 318 317 318 319 319 318 313 308 302 281 297 299 310 311 313 313 312 312 313 311 308 302 301 299 299 298 297 295 294 294 291 291 294 299 299 293 303 306 309 308 303 305 305 306 306 303 301 299 298 297 294 292 293 291 289 290 294 294 294 294 295 295 297 298 298 298
312 312 312 312 313 313 313 313 314 315 316 317 317 318 318 318 318 318 318 318 318 316 318 318 317 318 317 314 309 305 296 293 298 304 309 311 312 312 311 312 311 307 303 301 300 297 298 298 297 295 293 294 292 293 296 300 298 300 300 305 305 306 304 306 304 303 302 300 298 300 301 296 295 290 292 290 292 293 294 294 294 295 296 296 295 297 298 298
312 312 312 312 312 312 312 313 314 314 315 316 317 317 317 318 317 317 317 318 318 316 317 318 318 316 312 310 306 300 293 292 298 304 309 310 309 310 310 309 308 303 303 300 298 297 299 295 296 301 292 291 293 294 297 297 300 301 301 304 305 306 304 303 303 302 301 299 300 298 295 294 294 292 292 290 292 294 294 295 295 295 295 296 295 295 297 298
311 312 312 312 312 312 312 313 313 314 315 316 316 316 317 317 317 316 317 317 317 316 316 315 317 316 316 306 302 296 291 298 302 303 304 304 307 308 309 302 304 303 302 302 300 299 297 296 297 299 292 293 296 293 297 298 295 304 303 303 302 301 302 302 301 300 299 299 299 295 293 294 295 296 290 292 293 294 295 295 295 294 294 294 295 295 296 297
311 311 311 311 311 311 312 312 313 314 314 315 316 316 316 316 316 316 317 317 317 317 314 316 316 316 312 307 300 290 296 302 303 303 305 304 307 306 305 303 303 302 300 301 302 301 299 299 300 302 300 297 298 296 299 298 298 304 302 301 301 301 301 302 300 300 301 300 300 296 295 295 298 298 288 293 294 295 295 294 295 295 293 293 294 295 296 296
310 310 311 310 310 311 311 312 313 314 315 315 315 316 316 316 316 316 316 317 316 315 314 312 315 313 308 306 293 288 303 301 303 303 305 305 306 304 303 303 305 302 303 304 299 303 303 303 303 302 298 294 303 297 299 299 304 303 302 301 301 301 302 302 301 300 300 297 298 296 293 294 294 292 289 292 295 296 294 294 294 294 293 293 295 294 295 295
310 310 310 310 310 310 311 312 313 313 314 315 315 315 315 315 316 316 316 316 316 314 313 313 313 310 306 301 291 292 304 301 304 303 306 305 305 306 306 305 304 303 303 300 302 304 306 304 304 301 292 302 295 300 300 305 303 302 301 296 298 300 298 301 299 300 299 296 300 300 296 288 289 285 291 293 295 296 295 294 294 294 294 294 294 295 294 294
310 310 310 310 310 310 311 311 313 313 314 315 315 315 315 315 315 315 316 313 314 314 312 311 312 310 303 293 293 304 307 303 303 303 305 307 306 308 308 309 306 306 305 303 302 307 307 304 305 300 302 299 298 295 302 305 302 302 300 297 294 293 292 296 301 300 299 299 303 303 287 286 287 290 292 294 294 294 294 293 293 293 293 294 292 292 293 293
309 310 310 310 310 310 311 312 313 313 314 314 315 314 315 315 315 315 314 311 312 313 311 307 311 310 303 293 301 304 307 305 304 302 303 307 305 306 306 307 308 307 309 305 303 304 306 305 305 304 305 299 297 306 302 301 302 295 297 298 292 291 289 295 299 300 297 302 304 301 285 286 288 290 292 294 294 293 292 292 292 294 294 293 293 293 293 294
309 309 310 310 310 310 311 312 312 313 314 314 314 314 315 316 315 314 312 313 312 313 311 312 310 303 298 294 304 305 309 309 301 299 304 304 303 303 303 305 303 306 305 306 304 308 309 307 305 300 298 303 303 299 295 296 297 297 293 289 293 289 289 293 296 299 295 299 303 300 286 285 288 289 292 294 293 294 291 291 291 292 293 293 293 293 294 295
309 309 310 310 310 310 311 312 312 313 314 314 313 313 314 315 315 315 313 313 308 312 314 310 303 301 295 291 298 312 302 296 297 301 303 305 303 301 303 302 304 306 306 307 307 308 305 306 300 299 300 300 298 294 293 292 293 295 291 290 289 289 288 291 296 298 298 299 301 297 284 287 287 290 292 293 292 293 291 290 290 292 294 293 292 293 293 293
308 309 309 310 310 310 311 311 312 313 313 313 313 312 313 315 315 316 313 312 311 307 310 298 300 304 289 298 307 295 293 297 302 301 301 306 305 303 303 303 300 302 304 307 307 306 306 301 303 299 302 296 296 294 289 287 288 289 292 290 290 287 289 287 293 297 300 298 292 294 290 289 288 289 291 292 293 292 290 290 292 292 292 293 293 293 292 292
308 308 309 309 310 310 311 311 312 312 313 312 311 311 309 313 316 317 316 311 310 311 309 307 300 297 290 300 289 290 296 295 299 298 302 305 308 305 303 300 301 302 303 301 305 299 303 296 300 290 289 294 293 290 286 282 287 287 288 288 287 290 292 289 289 294 298 294 290 287 286 285 287 288 290 291 292 291 290 292 291 292 291 292 293 293 293 292
308 308 308 309 309 310 311 311 312 312 312 311 312 312 311 312 314 312 301 301 300 294 290 289 290 281 280 290 297 296 295 298 298 300 300 301 303 305 305 305 303 299 294 293 295 297 297 294 295 289 285 288 289 287 287 288 292 290 291 290 289 288 289 290 294 296 296 292 290 289 284 284 286 287 289 290 291 290 291 292 292 292 291 292 292 293 292 292
308 308 308 308 309 310 310 311 311 312 310 306 309 308 308 300 297 295 298 298 292 292 292 294 297 296 295 295 292 297 301 302 297 299 302 305 301 301 300 301 299 298 293 288 291 293 298 287 285 283 287 287 289 285 288 287 294 294 293 291 290 289 289 292 293 297 297 292 289 288 287 286 286 287 289 290 291 290 290 290 291 291 291 292 291 292 292 292
308 308 308 308 309 309 310 311 311 311 309 306 306 304 294 298 292 286 290 291 295 298 296 296 297 294 291 295 298 294 291 296 300 298 300 305 303 299 295 297 293 289 291 292 291 298 295 286 284 287 284 285 282 284 287 294 295 293 292 290 286 287 285 290 291 294 295 291 288 289 287 286 286 288 289 290 290 289 291 291 292 292 292 292 292 292 292 291
307 308 308 308 309 310 310 311 311 311 310 306 306 301 303 299 302 303 300 287 295 298 296 297 298 295 300 298 299 297 294 292 295 297 302 302 299 293 294 293 290 286 292 291 291 288 286 283 285 287 285 286 285 286 294 295 292 292 290 287 286 286 289 292 292 294 294 291 287 288 285 285 286 287 289 290 290 292 293 292 292 292 291 291 292 292 292 290
307 307 308 308 309 310 310 310 310 310 306 307 304 303 299 301 304 305 304 294 289 296 296 296 292 292 293 300 299 301 294 290 289 294 296 300 297 294 291 291 289 289 291 291 285 284 282 282 286 288 285 289 289 291 293 291 291 289 287 285 283 287 287 283 290 293 293 290 287 288 286 285 287 288 289 291 292 293 295 293 291 291 291 291 292 291 291 290
307 307 308 308 309 310 310 309 308 308 304 303 300 298 302 304 303 304 300 290 287 290 296 296 296 292 292 291 298 294 294 292 293 291 301 298 293 295 289 291 288 289 286 289 288 285 282 286 288 289 291 291 289 292 291 289 287 287 289 287 286 288 289 287 287 290 291 291 292 289 287 286 287 286 287 289 290 290 290 290 290 290 292 291 292 290 291 289
307 307 308 309 309 310 309 307 303 301 301 303 299 301 303 303 304 303 300 290 290 290 298 296 300 295 294 300 301 293 295 296 294 299 300 298 293 289 292 296 292 286 288 290 289 287 286 288 289 287 289 290 291 288 286 289 287 288 288 288 290 290 288 289 290 289 286 285 292 292 283 284 288 289 288 289 288 288 290 289 289 290 290 289 288 289 290 291
307 307 308 309 310 309 309 304 300 303 305 298 299 302 302 305 302 303 297 285 280 286 296 284 299 288 302 294 298 297 296 288 296 299 302 301 301 294 295 290 294 285 289 288 287 286 287 291 287 288 288 283 290 289 286 287 287 285 286 290 291 290 290 290 290 289 283 282 288 290 282 282 288 288 290 291 289 289 290 289 290 290 291 289 288 289 288 288
307 308 309 309 309 308 303 298 301 304 300 297 300 303 303 304 304 301 292 281 277 286 284 295 294 291 300 294 296 297 280 284 297 300 297 302 296 301 290 288 292 293 292 293 287 282 287 287 286 286 287 285 288 286 288 286 288 283 292 292 291 291 289 290 291 289 285 289 290 290 286 282 282 287 291 293 290 289 290 290 290 291 291 290 289 289 288 288
307 308 309 309 308 306 300 301 304 301 298 299 303 301 302 303 304 300 286 272 270 290 282 289 292 299 297 296 298 290 288 294 288 293 300 301 301 297 293 289 288 288 291 289 278 285 286 283 284 283 285 285 283 283 285 287 288 287 292 293 291 290 291 291 289 286 287 287 283 285 288 280 281 287 291 291 287 288 289 291 291 292 292 291 290 289 289 289
307 308 309 308 306 308 305 302 301 299 300 301 303 302 304 302 298 292 282 271 282 284 300 288 302 296 292 296 292 293 292 293 286 294 301 302 301 298 289 290 290 289 290 289 282 285 287 287 286 285 284 283 286 285 287 287 287 291 295 294 294 294 293 291 289 287 286 285 281 283 285 278 280 284 286 289 287 288 290 292 293 293 294 293 290 289 290 290
307 308 308 306 307 308 304 306 298 302 301 303 302 302 301 298 292 280 273 264 283 277 289 291 290 284 291 287 287 290 288 290 292 295 296 293 293 298 295 299 292 289 287 290 287 287 289 292 291 284 282 288 287 288 289 292 292 295 295 292 291 291 290 291 289 286 283 278 279 282 285 280 277 283 286 285 286 290 291 292 294 295 295 294 291 290 291 290
308 308 308 305 298 299 298 298 299 301 302 302 303 300 297 291 282 276 264 273 288 282 290 289 284 291 285 283 281 288 288 289 290 291 288 292 289 291 290 290 292 288 287 286 286 287 287 287 284 287 291 290 290 290 293 294 294 293 291 289 289 287 289 287 284 285 278 276 278 280 282 284 275 282 287 292 294 293 293 293 294 295 296 294 291 291 292 291
308 308 308 302 302 305 297 299 299 303 301 302 299 298 292 280 281 272 269 289 275 279 278 279 286 284 285 286 284 284 282 288 289 288 285 285 283 282 282 279 281 281 280 282 281 286 283 283 287 290 292 288 286 289 289 293 294 292 291 289 283 280 282 278 281 276 277 273 278 280 283 280 279 284 290 293 293 294 296 294 292 296 297 293 292 291 291 291
308 307 306 302 303 302 300 301 303 301 302 298 297 291 284 276 265 275 274 278 272 281 279 286 283 284 283 283 282 284 287 281 288 287 289 286 284 284 286 283 284 282 278 282 281 282 282 287 285 285 290 289 288 286 285 286 288 290 288 286 282 278 277 275 276 278 273 278 280 279 284 279 283 284 287 288 288 290 290 290 292 291 291 292 292 291 291 290
307 306 305 302 302 302 302 304 302 303 299 300 293 288 281 272 269 282 274 278 274 284 284 282 284 284 284 280 282 284 279 284 285 284 286 281 281 279 282 283 284 281 283 283 279 280 277 278 281 283 280 287 286 285 285 286 288 286 289 285 284 283 278 274 275 271 272 274 278 282 277 277 278 280 287 287 289 289 288 289 289 290 292 291 290 290 291 291
307 302 306 301 301 301 303 302 303 301 299 295 291 283 274 271 275 272 275 277 280 283 282 285 280 281 281 282 284 286 284 281 286 284 281 279 277 277 278 279 283 283 281 277 282 281 278 278 283 288 285 286 283 289 290 286 287 289 289 290 283 280 279 276 276 275 273 274 274 275 277 281 280 286 287 287 286 287 288 288 289 290 291 292 292 291 291 291
305 306 305 304 303 301 302 303 302 300 296 296 283 278 274 274 274 278 275 287 285 278 279 282 279 277 278 278 282 282 288 281 283 282 278 280 280 277 281 281 281 283 278 277 280 276 280 276 284 288 288 284 284 288 289 288 282 285 286 279 280 283 281 274 276 280 278 276 274 280 279 282 284 285 286 286 285 286 287 287 288 289 290 291 291 291 291 291
305 307 303 305 302 302 301 302 302 298 296 296 282 276 276 276 282 282 285 280 283 282 276 274 274 276 273 274 277 280 281 284 281 281 276 281 277 280 278 281 286 283 282 280 277 281 278 276 283 284 283 287 287 287 288 290 287 284 279 280 285 283 278 278 273 274 275 271 271 279 276 279 278 276 283 283 284 285 285 286 288 289 290 290 291 292 292 291
304 305 304 302 300 302 302 302 300 297 299 286 279 280 275 277 283 283 284 282 283 282 278 276 277 281 275 276 275 279 280 280 279 279 274 280 273 283 279 279 285 284 284 279 279 280 280 276 279 282 283 287 289 288 286 288 289 285 282 283 281 277 276 279 276 269 270 269 271 276 278 277 278 278 280 281 282 283 285 286 286 288 288 289 290 291 291 292
303 302 300 301 304 303 303 300 297 301 293 284 281 281 278 278 286 281 283 283 283 280 277 278 275 279 280 275 277 279 279 275 279 276 275 276 274 281 279 281 281 284 285 283 279 280 281 275 276 283 283 284 284 282 275 278 286 285 286 281 279 278 276 276 275 274 275 270 269 270 275 275 282 278 281 281 282 283 284 285 285 286 287 288 289 290 291 292
302 300 297 303 303 304 302 298 300 290 285 280 280 275 277 278 285 286 284 283 278 280 278 280 278 276 277 276 278 275 278 279 278 276 276 277 276 283 279 283 279 281 283 284 282 282 279 281 272 278 283 283 276 277 276 276 276 278 280 277 278 276 276 277 275 273 274 271 271 269 270 274 278 281 281 283 284 285 285 285 286 287 287 288 289 289 290 290
301 297 297 305 302 303 299 300 290 285 279 278 279 276 277 280 285 286 286 285 282 283 282 281 280 276 278 277 276 277 277 279 278 275 276 276 277 274 281 281 282 279 281 281 282 279 278 279 274 277 278 276 275 279 279 279 278 278 277 275 276 275 274 272 271 276 271 273 271 271 268 274 279 282 284 283 285 285 286 286 287 287 287 288 289 289 290 290
300 289 294 304 303 303 302 288 285 287 285 282 279 281 280 287 282 282 283 285 283 281 281 282 282 281 278 276 278 278 276 275 276 275 275 275 279 278 280 285 281 281 279 277 277 281 279 279 277 272 273 275 279 279 280 279 279 279 278 276 276 275 275 273 270 269 271 272 270 269 269 272 280 282 284 285 285 285 285 286 287 287 287 287 287 288 288 289
297 290 303 304 303 302 295 285 286 284 280 279 281 283 285 285 283 281 280 282 279 285 280 278 277 281 280 280 278 275 278 275 277 273 277 278 277 279 283 284 284 283 282 280 282 281 285 275 272 272 276 278 278 276 276 273 277 278 279 279 278 273 274 274 273 273 273 268 271 272 269 272 280 282 283 284 284 284 284 285 286 286 287 287 286 286 287 288
297 292 299 306 304 300 294 284 282 280 279 279 280 278 283 283 282 281 278 278 281 281 280 281 280 281 280 281 280 277 278 274 279 279 277 280 277 285 283 284 284 280 281 278 278 278 273 274 274 270 271 272 274 273 276 274 274 275 276 276 276 277 277 275 272 271 272 270 269 270 268 272 280 281 282 282 282 282 283 284 285 285 285 285 285 287 287 288
296 293 293 300 302 299 287 286 285 282 279 276 279 278 279 279 285 284 283 278 281 280 279 280 282 282 279 281 278 281 281 278 275 279 279 280 280 284 284 284 283 280 283 284 284 281 276 272 273 272 267 265 266 267 270 273 274 276 278 277 277 277 275 274 274 274 272 272 271 272 272 276 281 281 282 281 281 282 283 282 283 284 284 285 286 287 288 288
292 287 292 290 293 291 287 287 285 284 281 278 277 279 282 279 284 285 286 281 283 281 281 282 279 281 278 278 277 276 277 280 276 276 278 278 280 282 283 284 284 281 285 285 284 282 272 272 270 270 272 272 271 273 276 277 275 271 272 278 276 278 277 276 274 273 274 269 270 274 276 276 277 278 280 280 280 281 283 284 283 285 285 286 286 286 287 287
293 290 289 288 290 289 287 286 284 284 282 285 281 281 278 283 283 283 288 280 284 283 281 278 276 277 280 281 278 277 280 276 279 278 278 279 280 281 284 283 283 284 285 283 283 279 274 273 270 269 269 270 275 274 275 276 273 274 273 274 277 277 277 272 271 273 275 272 272 276 276 277 277 278 280 281 282 282 283 283 283 284 285 285 285 285 289 286
291 286 286 284 287 286 286 284 285 283 285 284 279 283 282 281 282 280 283 285 284 283 281 278 277 277 280 280 279 276 278 276 276 275 281 281 280 281 279 282 281 285 285 281 281 277 276 274 270 271 269 273 275 275 275 275 276 275 275 275 273 276 275 269 271 277 273 272 273 275 273 273 277 280 280 282 283 283 283 284 285 285 285 284 285 285 285 286
289 286 286 286 286 280 283 285 288 286 284 284 281 283 280 282 280 282 282 281 282 280 282 277 276 278 277 278 279 278 278 276 274 276 277 277 277 277 278 280 281 283 281 278 277 273 276 271 271 272 270 271 273 275 276 272 272 273 274 275 277 276 274 275 274 277 272 270 273 275 275 275 277 279 281 283 284 284 284 284 284 284 284 286 286 285 285 285
288 288 286 287 286 282 283 286 287 286 282 285 282 280 283 282 281 281 281 281 279 278 283 280 278 278 278 278 279 278 278 279 279 276 280 279 276 279 277 277 276 280 279 276 277 273 277 276 275 269 270 270 272 276 275 273 271 270 272 275 277 276 274 275 274 274 273 271 271 273 272 275 279 281 283 285 284 285 284 283 284 285 286 286 285 285 284 285
294 292 295 289 285 284 285 285 286 286 284 282 283 281 283 284 282 283 281 284 282 281 282 279 280 280 281 279 279 277 281 281 280 279 280 279 278 279 277 277 278 275 278 276 274 274 277 271 271 269 274 272 272 271 271 271 268 269 268 270 271 273 271 272 272 275 274 272 275 273 272 275 280 284 284 284 284 284 283 284 286 286 287 286 285 285 285 285
292 294 293 296 285 286 285 284 283 283 285 284 285 284 284 284 284 284 280 285 284 284 282 283 282 281 278 278 276 280 282 281 281 281 281 281 281 280 280 280 280 278 276 278 279 275 274 271 272 273 276 274 271 273 270 267 271 273 275 275 275 276 277 279 278 279 278 279 274 272 276 281 282 283 281 283 283 283 284 286 285 285 286 286 285 285 285 285
Wind_Speed
14 14 15 15 16 16 16 16 16 15 15 14 14 14 14 14 13 13 13 12 10 9 7 6 6 6 7 8 9 9 12 7 3 7 8 7 7 12 13 15 15 16 15 13 9 10 10 2 4 1 4 2 2 3 3 3 1 1 2 2 3 3 6 3 3 7 15 15 11 9 11 15 13 10 9 12 17 15 15 16 11 14 15 11 6 5 6 10
14 15 15 15 16 16 16 16 16 16 15 14 14 14 14 13 13 13 13 11 10 9 8 6 6 7 7 7 8 10 8 8 0 11 9 7 13 15 14 14 14 14 14 9 9 9 9 6 7 6 3 3 3 1 7 2 2 4 1 2 2 4 3 2 9 20 16 14 13 12 10 12 12 11 7 12 10 10 15 13 11 12 12 11 11 10 8 7
15 15 15 15 16 16 16 16 16 15 15 14 14 14 14 13 12 12 11 11 10 9 9 7 6 7 8 7 7 8 6 6 2 9 7 14 16 15 14 12 12 13 9 8 6 7 7 7 7 8 3 3 4 3 4 3 3 3 2 2 0 5 5 11 12 9 18 20 18 15 11 12 9 9 8 10 12 14 13 6 9 11 8 10 9 9 8 8
15 15 16 16 16 16 16 16 16 15 14 13 13 13 13 13 12 11 10 9 9 9 9 8 7 7 8 7 5 6 4 6 6 6 9 17 17 15 13 11 11 10 9 6 6 7 6 7 7 5 4 4 5 3 5 4 3 3 2 2 3 1 8 11 14 15 16 18 17 15 13 14 9 8 9 12 17 11 8 9 8 6 7 7 7 7 6 9
15 15 16 16 16 16 16 17 16 15 14 13 13 13 14 13 13 12 10 8 8 8 8 8 7 8 8 8 4 3 4 3 4 7 11 17 17 15 12 10 10 8 7 7 8 5 5 6 6 5 4 3 4 3 4 7 5 5 0 3 6 8 12 11 13 14 15 14 18 14 14 8 7 15 9 6 12 5 4 6 7 6 5 6 7 6 6 9
16 16 16 16 16 17 17 17 17 16 15 14 14 14 14 14 13 12 11 8 7 7 7 6 7 7 7 9 3 3 3 4 4 7 14 16 16 13 10 8 8 7 8 7 6 4 5 5 5 3 2 3 6 4 5 7 6 6 3 1 9 8 15 9 13 13 14 13 14 13 9 10 14 13 12 18 13 7 7 6 6 5 5 5 5 5 8 9
16 17 16 16 16 17 17 17 17 17 16 15 15 15 14 15 14 13 12 9 7 6 6 5 6 7 6 7 5 4 2 5 8 7 15 15 13 10 8 7 6 5 5 6 6 5 4 3 4 4 3 3 6 5 8 8 7 1 4 10 11 12 15 11 13 13 13 17 16 13 14 13 12 16 7 16 9 8 7 5 5 6 5 6 6 7 9 8
17 17 17 17 17 17 17 17 17 16 16 15 15 15 15 15 15 14 13 10 8 6 4 4 5 5 5 3 5 2 6 6 11 10 14 14 11 9 9 5 2 3 3 6 5 6 5 4 3 3 4 3 6 6 9 8 5 7 9 8 11 12 13 13 13 15 17 16 15 16 17 12 12 11 9 10 7 7 6 5 5 6 5 6 8 8 8 7
17 18 18 17 17 17 17 16 16 16 16 15 15 15 15 15 15 15 13 12 9 6 5 4 5 6 3 3 4 5 4 7 9 11 12 10 9 8 5 8 8 4 2 1 5 4 5 2 5 5 2 3 6 7 11 9 3 8 11 11 13 14 14 13 14 14 14 11 15 21 17 15 16 16 14 6 6 6 6 5 5 5 5 5 7 8 7 8
18 18 17 17 17 17 17 16 16 16 16 16 15 14 13 15 15 14 13 12 9 7 5 5 6 6 5 4 5 1 2 10 7 9 11 7 7 9 8 6 5 7 5 4 3 5 5 6 6 6 6 8 8 4 4 6 8 13 15 14 15 13 13 10 14 13 11 12 14 20 12 9 7 1 4 5 5 4 6 6 3 4 6 6 6 5 5 6
17 18 17 17 16 17 17 17 16 16 16 16 16 14 13 14 15 14 12 10 9 6 5 5 5 4 4 5 4 3 4 9 5 6 10 5 6 7 7 6 3 5 6 2 1 3 4 7 9 5 3 2 1 8 6 8 16 14 17 17 14 12 12 12 12 13 11 10 13 21 16 11 9 9 5 4 4 4 5 5 4 3 5 5 4 5 5 5
18 18 17 17 16 16 17 17 16 15 15 16 17 16 13 13 13 13 12 11 6 4 3 4 4 2 5 1 6 2 7 7 5 6 6 4 4 3 4 4 3 3 4 5 2 1 2 6 8 5 1 2 1 6 9 17 15 15 19 17 14 13 13 9 8 7 8 12 11 18 15 11 11 3 5 4 2 4 5 5 5 4 3 4 4 3 4 5
18 18 17 17 16 16 16 16 16 15 14 15 17 19 16 12 11 12 12 9 3 3 3 4 3 2 2 0 2 3 1 7 5 7 6 3 5 2 0 1 2 1 3 5 3 2 3 4 4 8 5 8 7 1 8 12 15 12 12 14 11 8 7 8 4 8 8 9 10 3 4 2 5 7 5 3 3 4 5 4 3 3 3 3 2 3 3 3
19 19 18 17 16 16 16 16 16 14 14 14 15 18 19 13 10 10 8 5 3 4 4 4 2 2 2 4 2 4 4 6 5 7 8 7 6 2 3 3 1 1 0 4 3 0 3 3 4 7 8 7 5 13 14 10 8 8 12 8 8 9 3 5 2 8 8 3 2 2 3 3 5 4 5 3 2 4 4 4 4 2 3 3 2 3 3 4
19 19 19 18 17 16 16 16 15 14 14 14 13 15 16 14 11 10 7 6 3 1 4 5 2 2 1 3 5 2 3 5 6 8 6 8 8 4 4 5 5 2 2 3 4 1 2 3 3 3 3 6 7 11 10 7 7 9 9 5 4 8 3 3 9 2 5 3 4 2 8 3 5 4 4 3 1 2 5 4 3 1 1 4 4 4 2 2
19 19 19 19 17 17 16 16 14 14 14 12 12 14 15 12 10 9 6 3 2 2 2 2 4 2 5 4 3 3 5 9 10 7 3 4 6 6 6 4 1 1 2 1 2 1 2 2 4 3 4 6 11 7 9 8 5 7 3 8 8 8 7 7 3 3 5 6 1 1 7 8 3 4 4 3 1 2 4 3 3 2 1 2 3 3 3 4
18 19 19 20 19 17 17 16 15 14 13 12 12 13 11 11 10 8 7 6 3 3 1 4 7 2 3 4 4 7 9 8 7 5 7 4 3 4 5 1 1 1 2 0 2 2 1 3 1 2 2 4 5 8 9 7 8 7 4 7 7 11 10 5 3 5 2 7 8 10 11 6 7 7 5 4 2 0 3 3 4 3 1 2 1 1 2 3
18 18 19 20 20 18 17 16 15 14 13 13 11 10 7 9 12 11 6 5 2 2 1 2 5 3 4 3 7 9 8 8 6 9 6 2 1 3 3 1 2 2 2 2 0 2 1 1 1 1 1 3 4 4 8 11 11 12 8 10 9 8 6 9 7 5 4 12 13 12 13 9 7 5 5 4 2 1 2 3 4 2 3 1 1 2 2 2
18 18 18 19 20 19 17 17 16 15 13 15 13 6 4 7 4 1 5 6 3 2 2 7 7 3 4 7 4 5 6 9 9 7 6 5 4 4 2 2 2 2 2 3 1 2 0 1 2 2 1 4 5 2 2 0 7 7 8 10 11 9 9 7 5 4 9 9 9 8 8 8 7 6 5 4 4 3 2 3 1 0 1 2 2 1 2 1
19 18 18 18 19 20 18 17 16 14 12 9 1 1 1 1 1 2 4 6 8 8 5 1 2 2 2 4 6 4 7 8 2 6 4 3 6 6 4 2 3 3 2 1 1 3 1 3 1 3 1 5 7 3 2 4 4 7 12 13 11 12 10 9 7 8 7 10 9 10 10 8 8 6 6 6 5 2 2 3 2 2 1 1 1 3 2 1
20 20 19 18 18 19 19 17 15 13 10 4 4 1 2 1 3 2 2 5 3 2 3 2 3 3 2 3 2 6 7 5 5 6 5 4 5 2 1 1 2 2 2 5 3 1 4 4 4 2 1 3 5 4 5 4 6 8 14 13 10 9 9 5 7 6 3 4 6 8 11 8 7 5 5 4 5 4 5 4 4 3 3 2 1 2 2 3
21 20 20 19 18 18 19 17 15 12 11 3 2 2 2 3 1 2 0 2 2 2 3 0 5 3 1 0 0 3 3 3 7 8 4 6 4 3 2 3 3 5 3 1 4 2 1 5 3 6 2 5 2 4 3 3 6 13 12 11 11 8 9 7 7 7 8 12 7 7 9 7 5 4 3 4 4 3 5 3 3 4 4 3 3 2 3 4
22 21 20 20 20 18 18 17 13 10 4 2 2 0 2 2 3 0 1 1 2 1 1 0 6 6 5 2 1 2 3 8 6 7 8 6 3 3 3 3 5 4 3 1 4 3 3 2 5 6 4 5 4 5 9 10 10 11 11 11 9 10 9 8 6 7 3 3 8 7 9 5 4 2 2 4 4 1 1 1 2 3 1 3 4 3 4 4
22 21 21 20 20 18 17 15 11 5 1 5 6 3 1 1 2 2 2 1 1 2 2 1 3 3 4 3 2 3 4 5 5 9 6 6 6 3 0 6 5 3 4 5 9 8 4 3 2 5 2 2 4 9 6 9 10 5 9 11 12 10 5 7 9 11 12 8 8 11 7 3 3 2 2 3 3 1 1 2 3 3 3 3 3 3 1 1
23 21 21 20 19 18 16 11 2 2 2 3 4 2 0 1 1 1 1 0 0 2 1 2 2 2 2 2 3 2 4 1 5 3 3 5 8 4 4 3 4 6 4 6 11 8 8 3 3 0 2 2 4 7 5 4 10 8 4 11 12 10 14 12 12 9 4 5 2 2 4 1 4 5 4 3 3 4 3 4 5 5 5 4 4 3 4 4
22 21 20 20 18 18 15 3 2 1 0 2 2 1 0 1 2 1 0 1 2 3 2 9 0 6 0 5 4 2 1 3 4 4 3 3 3 1 3 2 1 5 6 9 7 3 3 9 4 5 5 4 1 4 3 3 10 9 6 8 11 13 13 9 9 8 5 5 4 2 1 3 1 5 6 5 6 5 4 6 6 6 6 6 5 5 5 5
22 20 19 19 17 16 4 2 1 1 2 1 2 1 1 1 2 1 0 1 4 4 3 2 3 2 1 6 5 3 2 2 5 4 5 4 4 3 1 3 2 2 1 0 3 4 7 10 9 10 6 4 4 4 3 3 8 6 7 12 12 14 10 7 7 5 4 4 2 1 0 1 2 5 3 6 5 5 6 7 7 7 6 5 6 6 5 5
22 21 19 17 15 10 2 3 2 0 3 2 1 1 1 1 1 1 1 2 5 3 3 3 2 4 3 6 6 5 4 6 1 7 2 4 3 3 7 8 8 6 2 5 7 1 6 5 9 8 4 3 2 1 6 5 3 9 11 10 12 12 9 6 8 8 6 6 1 1 2 0 2 3 6 5 4 5 9 9 9 9 7 8 8 7 5 6
21 20 19 16 15 12 4 2 3 2 2 2 1 2 1 2 2 0 1 3 0 2 3 2 3 3 7 4 7 5 3 5 5 2 0 3 6 3 6 9 11 15 12 9 8 2 3 4 2 2 2 3 2 3 3 3 12 6 9 8 8 5 4 6 7 8 5 4 3 1 3 1 2 2 6 4 3 6 9 10 8 10 11 9 8 6 6 6
21 19 17 19 13 2 1 0 4 1 2 1 0 2 3 1 0 2 3 2 1 2 3 2 3 6 7 6 5 7 6 4 4 1 6 5 10 6 3 3 4 9 10 9 11 3 3 1 4 4 3 3 2 4 1 5 8 10 8 9 6 4 3 5 6 5 4 3 1 2 2 2 1 6 8 8 8 12 5 3 6 5 6 8 8 7 7 6
20 18 14 16 3 2 2 1 3 2 1 1 1 1 0 0 2 2 3 1 2 1 3 3 3 5 7 7 5 7 4 4 4 5 5 7 9 7 5 1 5 5 7 8 10 7 5 3 3 2 3 3 3 5 6 8 7 6 6 8 7 3 5 5 2 2 2 1 2 1 1 1 1 0 5 8 1 4 4 5 7 8 8 8 7 6 7 6
19 16 11 7 3 3 3 2 2 1 1 2 2 1 0 2 4 7 1 2 1 4 3 4 2 4 9 6 5 6 4 3 4 3 4 3 6 8 9 4 5 4 6 5 4 3 10 9 2 3 2 8 4 8 4 4 3 2 7 7 6 6 3 3 3 2 1 2 1 0 1 0 3 2 3 7 2 3 4 2 4 2 7 8 7 7 8 7
18 13 8 4 5 1 3 1 0 1 2 1 2 1 2 3 4 3 2 5 0 1 2 1 5 9 9 4 4 4 3 4 5 6 2 5 2 5 8 10 4 1 5 1 3 2 3 1 9 8 1 9 4 7 5 6 2 3 6 5 4 6 4 5 3 1 3 1 2 1 2 0 1 1 6 6 4 4 6 3 3 5 5 4 3 5 5 5
17 9 3 1 1 1 2 0 1 1 3 2 1 1 10 8 1 4 2 2 3 1 5 1 6 6 4 3 2 3 2 0 4 6 6 1 7 6 9 11 15 8 4 3 3 4 3 2 8 7 3 6 6 5 1 1 1 1 0 1 2 1 2 6 3 2 2 2 0 1 2 2 2 1 1 3 2 4 4 3 3 3 2 1 1 2 0 5
13 5 4 1 2 2 1 2 0 1 2 1 1 6 6 2 1 2 2 2 1 2 2 4 3 3 1 2 0 2 1 1 3 3 8 9 5 3 6 7 9 4 3 1 1 2 3 4 0 1 2 3 2 2 1 1 1 1 0 1 1 1 1 4 0 3 3 3 2 1 1 1 2 1 1 1 3 1 2 2 2 0 0 0 0 1 0 1
7 2 2 1 1 1 1 1 0 1 2 1 5 9 5 1 0 1 1 2 2 2 8 7 1 2 3 2 1 5 2 2 5 1 1 6 6 5 4 2 5 8 5 3 1 3 0 6 4 1 3 2 3 2 1 2 2 3 0 1 1 2 3 5 1 1 1 2 1 0 2 1 1 0 2 1 1 1 1 1 0 1 1 1 1 1 1 2
3 1 1 1 1 1 1 1 2 1 2 1 7 4 1 1 2 1 4 3 2 3 2 3 4 3 4 3 3 7 5 2 4 3 4 1 3 8 5 4 4 5 3 1 2 1 3 2 1 4 3 1 0 1 3 1 2 1 3 2 1 1 2 1 2 1 0 2 1 1 2 1 1 2 1 3 2 3 2 1 1 0 1 1 1 2 2 2
3 0 1 1 3 2 1 1 2 3 1 9 10 6 1 0 1 2 2 3 1 1 2 3 0 6 3 3 5 6 11 3 6 4 2 6 1 3 2 3 6 6 4 1 1 2 2 6 4 2 2 1 2 1 1 1 3 3 6 1 1 1 1 0 3 1 1 1 0 0 0 3 1 1 0 2 4 4 4 3 2 2 3 4 3 3 3 2
3 2 0 2 2 1 1 2 3 2 0 10 2 4 1 0 1 1 1 1 2 2 1 1 0 3 2 3 2 2 7 4 6 4 1 3 2 4 3 3 3 8 5 6 2 3 2 3 2 1 1 1 2 4 3 7 3 4 1 2 0 2 1 2 0 1 1 2 3 1 1 1 0 1 0 4 5 4 4 4 4 3 4 4 4 4 3 2
2 1 0 0 2 0 4 1 1 9 7 8 2 2 0 1 1 2 1 1 1 1 2 1 1 1 3 1 2 1 3 5 5 3 3 4 2 1 4 5 3 9 8 4 0 0 2 0 3 1 2 2 4 5 2 3 4 6 5 2 2 2 2 1 1 2 1 2 3 3 0 1 1 3 3 5 4 4 3 2 2 3 3 4 3 2 2 1
1 0 1 1 2 1 1 1 11 8 7 1 4 2 0 0 2 1 2 2 1 2 1 2 3 2 1 0 2 2 1 4 5 3 3 1 4 2 2 5 4 5 6 3 1 6 2 5 3 0 4 5 1 1 0 0 0 0 1 2 1 2 2 1 0 0 1 1 1 3 1 0 1 3 2 4 2 4 2 1 2 2 2 2 1 1 0 1
2 1 2 0 0 0 1 8 4 3 3 3 1 0 0 2 1 0 0 1 2 2 0 1 1 3 2 2 1 2 1 2 3 2 3 3 3 2 3 5 4 3 2 2 1 1 1 1 6 4 1 0 1 1 3 2 1 1 1 0 0 1 1 1 0 2 1 0 1 1 2 2 1 2 1 2 2 2 1 0 0 1 1 1 1 1 1 1
2 1 1 1 1 1 7 7 4 4 4 1 3 2 1 0 1 1 1 0 1 2 1 0 1 1 3 2 0 1 3 2 2 2 0 0 1 1 4 5 7 4 2 3 0 0 2 2 3 1 1 2 2 1 1 4 1 1 1 1 1 1 1 1 1 1 1 1 1 1 1 2 2 0 1 0 1 0 0 1 0 1 1 1 2 2 2 1
0 1 1 1 1 0 3 3 2 2 2 0 0 0 2 1 1 0 0 1 2 2 1 2 1 2 0 1 1 1 2 2 3 2 1 1 0 1 2 5 7 3 3 0 1 4 2 1 2 2 1 2 2 1 1 0 0 0 1 1 0 0 1 1 0 1 2 0 3 1 0 2 2 1 1 1 1 0 1 3 1 1 1 1 1 1 1 1
0 0 0 1 3 2 5 0 5 4 2 3 1 1 0 0 1 1 1 1 1 1 1 2 1 3 1 1 2 0 2 2 1 1 2 0 1 2 3 5 5 2 4 1 2 3 4 1 1 1 2 2 1 3 3 1 1 1 1 1 2 3 2 1 1 1 0 1 2 1 0 1 0 0 1 1 1 1 2 4 4 2 1 0 0 1 1 1
0 1 0 2 5 5 4 0 3 4 5 3 2 0 1 1 1 1 2 0 1 1 2 0 1 2 1 1 1 3 4 5 2 0 1 1 1 1 0 1 4 1 1 1 3 1 2 2 4 1 1 1 1 1 1 2 1 1 0 0 1 0 1 0 0 1 0 2 1 0 1 0 1 2 1 3 2 1 1 1 1 1 1 1 1 1 1 2
2 1 0 1 1 7 5 3 4 3 3 3 1 1 2 2 1 1 2 0 0 1 0 2 1 1 2 1 1 1 1 1 4 2 2 2 1 0 1 2 2 4 1 1 1 0 2 3 3 5 5 1 1 1 3 4 0 0 1 0 1 0 0 2 1 1 1 3 1 1 5 1 1 3 2 2 1 1 2 3 3 3 3 2 2 2 4 4
0 0 1 0 1 1 1 1 2 4 3 1 1 0 2 2 1 0 0 0 0 0 0 0 5 3 2 1 2 1 2 1 2 1 3 1 2 0 0 2 2 4 2 1 4 2 1 2 3 4 2 1 0 2 2 3 1 1 1 0 0 0 1 1 0 2 3 0 1 1 5 2 2 1 4 3 3 2 2 2 1 1 2 3 2 2 2 3
2 2 1 1 1 0 1 0 2 5 5 3 2 1 1 1 2 1 1 0 0 0 1 2 3 4 1 1 1 1 3 1 2 1 1 3 2 3 2 0 0 3 3 2 3 0 2 2 1 1 2 1 1 1 2 1 1 1 0 1 0 0 1 0 1 1 1 2 1 3 4 7 7 6 6 1 1 1 1 1 1 2 3 1 0 2 3 3
0 0 0 1 5 2 1 1 2 1 3 1 2 0 1 1 2 1 1 1 1 0 1 3 1 1 0 2 1 2 1 1 0 0 3 2 2 4 1 2 4 4 3 3 3 4 1 0 3 1 1 2 0 1 3 3 2 3 2 2 1 0 1 1 0 1 2 2 3 3 3 7 5 4 2 1 0 0 1 2 1 1 1 1 1 2 4 4
1 1 0 4 3 1 0 1 1 0 1 1 1 1 1 1 2 2 1 1 1 1 2 3 4 3 1 5 5 4 3 2 3 3 1 1 1 1 0 1 2 4 5 2 2 4 2 2 1 1 1 0 0 1 1 3 4 2 7 5 2 1 2 2 2 4 3 4 1 1 1 3 3 1 0 1 1 1 2 3 0 1 0 1 3 4 4 4
1 0 1 1 2 1 0 1 0 1 1 1 1 2 1 2 4 3 2 1 2 3 2 2 1 0 2 4 3 2 1 3 3 2 2 1 1 3 3 1 2 2 3 3 1 2 2 5 2 1 1 1 1 1 2 6 3 2 5 6 10 5 2 1 1 4 5 3 4 1 2 2 1 0 3 1 2 3 1 0 1 2 2 2 4 4 4 4
Wind_Direction
350 350 350 349 348 347 345 347 347 347 347 345 343 342 343 346 345 345 345 346 349 347 351 344 335 334 321 319 322 320 318 307 335 60 61 41 346 343 338 330 330 327 331 313 336 348 352 339 7 5 248 148 204 238 152 200 232 180 212 217 197 248 221 304 221 148 130 131 139 140 106 104 101 101 112 81 65 75 74 70 69 64 62 60 46 354 313 288
348 349 348 348 347 346 346 346 346 348 347 344 344 343 342 343 342 343 345 344 349 348 342 342 336 323 328 316 322 320 316 296 307 81 68 5 352 341 336 331 324 329 321 326 353 344 340 4 341 324 264 210 150 211 140 195 222 188 248 232 178 229 49 34 100 122 128 130 136 117 115 100 110 123 124 92 69 69 68 56 57 63 43 29 19 358 345 348
348 348 348 348 347 345 345 345 346 348 347 344 343 342 340 338 339 341 345 343 345 347 342 333 334 329 313 320 328 317 314 288 268 29 27 358 348 344 340 332 325 320 317 314 328 333 329 329 303 299 265 220 187 133 217 153 199 226 231 191 334 36 76 97 115 119 126 133 125 124 109 100 102 85 81 90 90 56 48 30 31 38 24 12 8 356 355 18
347 348 347 347 346 345 344 344 344 347 345 342 340 339 336 335 336 340 343 346 343 346 340 332 328 321 317 310 327 320 275 275 52 10 11 351 346 345 343 332 325 318 306 312 330 294 310 290 285 277 285 250 180 177 176 171 162 150 260 212 161 140 72 68 96 111 117 120 114 108 104 89 80 94 97 122 83 55 63 42 49 45 27 7 12 2 11 32
346 348 348 347 345 345 343 343 343 343 341 339 340 340 336 335 335 339 343 347 347 344 340 329 324 319 312 311 319 286 307 264 58 5 352 349 346 342 345 335 322 313 316 308 285 285 300 304 299 279 262 216 159 167 206 149 210 134 358 341 67 98 88 83 92 99 99 94 99 88 83 102 65 42 60 66 98 99 51 48 47 51 39 12 15 28 30 44
346 346 347 346 345 343 343 341 340 340 340 340 342 341 339 336 334 335 337 340 347 346 336 327 314 311 313 306 316 276 271 49 2 12 341 349 345 341 340 333 313 304 295 306 310 307 277 268 244 233 208 257 168 180 193 157 214 158 14 275 91 80 94 79 87 91 104 104 93 94 85 79 76 80 56 66 68 93 77 74 58 57 41 23 33 43 52 50
345 345 345 346 344 342 341 340 337 337 340 340 340 341 338 335 332 330 328 334 334 342 334 313 304 305 316 322 276 272 355 76 5 346 349 353 341 344 331 315 288 282 311 316 349 340 331 282 257 230 227 232 163 205 169 172 197 173 105 84 82 92 96 100 86 79 78 86 91 98 92 86 102 86 58 72 66 71 75 74 68 66 53 32 44 50 60 60
344 344 345 345 343 340 338 337 335 335 338 339 338 338 338 334 328 327 324 322 327 331 332 310 297 309 337 302 297 217 54 7 340 353 352 349 344 335 322 269 307 329 313 2 337 344 338 292 220 257 261 225 157 212 156 157 200 132 120 109 97 89 89 85 90 89 88 80 86 80 75 71 73 99 83 64 65 71 59 59 78 78 69 49 47 43 54 63
343 343 343 342 340 336 335 336 334 334 337 336 337 337 335 328 326 323 323 318 318 318 319 301 313 316 310 309 276 294 44 323 336 347 352 346 334 324 300 10 356 320 313 327 349 308 299 329 254 9 311 280 161 212 157 156 165 118 110 102 94 91 92 93 88 88 93 98 95 83 89 99 106 85 60 74 72 53 53 47 53 75 71 60 59 51 40 51
340 339 339 339 337 334 333 334 333 334 336 335 333 333 334 324 323 323 322 319 313 307 292 314 313 330 304 264 287 1 80 309 349 346 348 343 334 342 25 13 358 341 339 37 311 334 333 345 336 332 317 276 253 170 144 179 97 111 110 105 101 102 101 96 101 103 102 98 104 101 97 74 16 114 89 58 102 97 50 41 41 69 61 59 63 68 49 58
337 336 336 336 336 333 332 333 333 334 336 333 329 329 333 322 322 321 324 319 311 291 294 310 325 307 283 281 24 52 352 320 7 349 335 353 340 4 12 3 11 335 344 334 352 356 324 323 346 325 284 273 192 120 191 101 114 117 113 102 99 100 94 103 103 106 108 85 99 98 82 62 36 51 82 92 96 105 80 63 41 59 77 69 60 61 61 56
336 335 334 335 335 332 331 331 333 335 335 334 326 327 328 321 322 321 323 322 306 286 312 308 318 299 278 18 60 34 300 336 340 355 329 333 343 348 7 13 342 8 332 347 23 347 333 320 319 321 332 338 146 121 110 127 117 123 109 99 109 108 102 103 108 114 108 120 126 111 81 41 25 76 83 98 101 123 121 96 68 58 92 109 97 66 52 54
336 336 334 335 334 332 330 331 332 335 334 332 329 325 320 325 322 321 323 331 4 331 310 325 314 253 294 226 68 55 333 332 0 345 356 314 292 339 296 72 5 320 24 310 354 36 332 294 309 309 293 315 156 162 120 117 127 112 97 119 103 83 57 355 90 110 113 147 162 329 85 42 53 86 109 125 144 141 113 105 86 96 69 25 25 97 84 68
336 335 334 333 334 332 330 330 331 333 333 331 332 323 320 329 333 328 325 320 339 272 250 268 321 287 289 79 138 39 14 316 351 358 4 325 312 75 296 15 123 12 85 305 249 321 284 282 276 281 284 269 110 113 138 130 145 124 123 111 130 108 79 324 175 140 126 136 321 306 112 121 101 107 103 142 160 144 103 104 106 56 117 125 55 36 27 42
337 334 332 331 333 332 330 330 331 331 331 329 328 318 314 321 334 340 322 309 360 276 248 303 232 301 206 99 135 113 21 294 4 356 4 340 346 341 4 328 15 38 347 265 298 232 257 279 287 266 275 236 136 149 127 147 148 136 132 138 142 121 136 2 10 77 141 187 260 18 85 127 134 116 131 110 134 134 118 122 122 120 74 135 142 133 131 98
339 335 331 330 331 332 329 330 329 330 325 325 317 307 306 309 323 330 311 326 282 263 263 286 333 319 302 80 18 2 10 357 358 339 339 339 345 358 340 314 213 288 263 208 251 289 235 294 280 279 246 147 152 145 146 142 154 175 165 146 136 108 139 104 358 9 320 162 177 86 122 116 104 136 116 157 172 169 129 129 119 135 131 90 100 112 143 149
340 337 332 329 329 331 330 330 331 327 323 316 311 299 303 299 304 319 289 277 248 223 328 5 312 210 51 212 235 355 351 341 336 344 327 42 333 339 328 339 2 110 267 344 256 243 256 261 236 297 300 139 184 159 151 158 150 188 169 148 115 131 140 113 47 308 224 130 71 86 114 95 113 130 134 137 217 188 138 134 128 127 153 95 95 126 105 106
341 339 333 329 326 329 330 329 329 327 318 311 300 290 292 306 314 314 253 239 260 338 319 350 337 76 139 59 5 352 324 317 332 306 305 11 339 341 324 32 191 235 214 165 25 284 154 227 279 75 1 188 223 171 172 174 168 176 168 132 111 113 121 126 142 207 159 81 91 80 81 110 119 121 131 160 148 246 141 130 137 135 117 169 173 127 103 103
341 339 335 330 327 326 329 330 328 324 318 312 290 282 258 271 279 309 34 27 35 26 42 2 9 40 344 347 357 340 325 287 298 295 20 9 347 289 225 302 323 207 179 169 120 203 276 155 331 102 202 207 204 209 158 355 153 185 141 116 120 121 126 135 118 155 111 107 108 106 122 123 125 126 141 151 183 191 128 114 103 75 100 155 182 124 123 109
341 339 336 332 328 323 327 328 327 319 323 326 283 148 173 208 139 178 65 58 66 85 97 9 21 353 283 25 332 318 277 262 306 29 2 22 322 346 315 238 173 282 198 122 114 243 227 147 167 154 164 346 348 37 308 273 235 178 105 117 120 115 108 114 129 131 107 87 69 101 109 114 121 140 151 165 177 202 154 174 156 171 214 194 174 149 126 125
340 339 336 333 330 324 324 326 323 315 310 300 296 245 244 305 263 128 85 60 62 50 85 61 8 44 357 278 342 353 10 334 55 26 17 313 271 302 189 236 213 161 98 126 139 76 355 142 16 2 329 305 303 299 305 307 295 134 116 112 102 107 112 102 92 59 19 105 104 107 103 100 113 130 155 165 181 189 185 190 182 177 189 193 186 135 171 112
340 338 336 333 331 327 324 325 320 305 299 265 267 248 54 69 10 19 206 132 133 133 49 339 40 40 65 121 125 123 180 313 38 15 12 353 327 296 84 298 201 98 87 332 83 96 348 70 354 342 336 277 251 305 291 291 99 107 112 108 105 104 101 92 91 90 92 93 114 111 97 100 111 127 158 179 195 194 190 201 197 185 182 193 182 171 148 126
340 337 335 333 331 327 325 325 313 318 292 212 222 311 78 46 325 182 247 117 117 356 215 99 34 25 14 55 16 280 344 29 4 15 357 339 287 87 338 296 68 106 107 152 142 149 100 22 344 324 326 310 340 65 53 82 84 102 115 115 122 134 129 129 119 128 108 92 135 125 97 98 101 118 172 198 222 161 135 329 349 344 236 188 189 181 179 178
339 337 334 333 331 327 325 324 313 289 21 61 58 59 50 285 308 265 206 48 120 202 187 110 94 29 23 1 359 343 7 26 10 358 1 355 356 318 118 5 104 114 67 57 75 70 72 10 318 295 292 68 89 75 72 90 92 74 102 115 121 150 93 107 128 102 86 79 116 109 85 97 142 177 183 228 242 273 206 220 250 227 262 301 35 28 337 220
339 337 334 332 331 328 325 322 287 60 271 99 76 99 46 278 251 347 279 131 35 81 91 162 218 100 302 224 243 266 12 12 18 15 353 9 351 336 25 27 32 30 75 99 91 82 49 29 290 243 93 102 87 73 18 65 106 95 88 120 133 116 114 117 126 112 94 111 181 76 96 285 165 206 203 173 199 230 218 207 219 216 211 212 226 217 191 212
337 336 334 330 333 328 324 298 84 309 360 55 56 127 326 298 269 314 305 242 80 2 185 12 236 9 223 344 316 110 267 53 318 4 340 355 180 74 281 56 24 102 85 77 82 56 2 350 23 34 97 20 66 73 28 306 109 109 149 135 120 116 119 140 127 106 115 140 157 44 111 154 104 214 199 187 192 221 209 214 220 215 210 196 209 203 196 189
336 334 335 332 333 337 303 75 306 258 195 132 89 10 11 300 292 313 84 215 50 18 44 315 335 62 335 333 337 160 62 6 303 342 1 16 349 169 334 67 91 51 339 122 85 37 339 4 20 29 48 355 122 71 1 355 99 85 127 119 128 127 139 160 127 86 84 61 28 4 188 103 171 229 193 188 204 205 217 215 215 219 208 204 198 202 201 194
335 334 333 332 331 334 358 294 248 349 37 63 295 51 307 289 342 275 66 29 21 338 10 351 25 287 5 317 37 63 193 254 351 348 343 330 321 70 57 64 69 59 47 97 87 353 347 10 23 24 31 51 35 203 281 272 114 131 135 139 138 142 160 134 92 107 130 138 97 218 230 40 175 155 160 177 207 223 222 218 210 207 209 204 201 194 199 204
335 333 333 326 323 305 290 332 335 62 46 32 316 261 8 289 266 169 261 77 247 46 166 41 208 355 339 322 38 31 45 15 54 309 319 101 70 234 72 70 80 71 49 74 95 83 31 40 343 28 43 38 315 271 271 100 100 138 141 131 137 145 140 110 110 110 141 126 155 101 41 89 44 119 151 173 229 237 229 217 209 201 204 199 188 194 198 200
335 335 330 326 315 241 305 246 55 39 2 19 306 302 260 292 181 10 25 5 22 317 17 278 37 301 317 352 29 6 32 18 20 31 31 42 23 20 38 303 61 77 76 69 76 113 157 209 272 44 16 316 305 295 135 89 99 137 137 128 130 136 133 101 115 125 93 151 142 4 54 89 214 213 183 152 211 212 202 205 210 204 196 185 180 185 194 194
333 334 329 325 18 342 270 159 46 22 351 306 261 307 209 32 13 75 61 249 42 279 327 34 351 336 344 3 11 348 31 19 21 2 49 25 33 33 345 58 346 78 76 68 64 55 42 54 42 330 342 328 249 64 46 99 123 134 138 138 125 92 105 83 90 155 107 152 308 353 48 14 91 290 212 217 219 180 186 203 198 197 199 178 173 182 187 193
331 331 324 336 308 278 340 51 358 348 350 307 297 224 263 69 20 67 227 302 87 334 37 313 309 345 327 322 38 353 345 358 7 30 33 53 62 47 20 62 324 57 47 31 70 29 36 34 321 311 256 14 346 87 60 44 5 158 144 142 135 129 130 129 154 137 201 160 194 296 354 4 251 287 196 166 162 163 163 59 11 200 178 150 161 174 190 193
330 326 303 300 338 60 66 55 243 32 282 333 289 228 57 75 51 327 341 341 176 360 318 300 295 325 299 303 15 342 312 40 343 24 5 26 46 90 75 48 357 274 100 63 92 42 28 228 28 346 241 359 3 101 127 113 332 149 154 158 120 144 153 137 169 108 53 306 340 58 322 175 341 343 9 82 25 41 62 67 69 51 47 74 140 181 188 189
328 314 279 42 31 54 90 55 77 322 306 262 332 21 51 64 339 145 221 30 269 325 258 324 309 305 305 64 287 350 3 149 29 24 14 80 38 16 359 21 18 357 36 78 60 17 91 29 2 1 16 350 32 86 228 16 53 347 138 111 267 51 143 140 163 148 148 156 218 279 82 238 135 238 69 96 79 80 72 82 101 56 68 120 93 18 94 182
323 282 263 186 210 88 52 92 182 60 288 341 57 67 72 74 85 334 352 323 324 277 298 343 310 308 199 83 238 63 78 36 67 68 37 52 23 39 3 341 354 6 276 113 95 117 74 82 146 79 212 308 40 20 80 182 296 265 142 230 66 146 271 104 96 107 128 105 61 332 200 109 140 191 102 94 74 34 75 78 58 50 147 115 100 183 117 44
312 208 197 240 42 94 157 165 87 133 282 272 70 50 63 279 106 35 302 300 296 3 309 308 210 337 9 58 57 17 232 63 313 98 87 68 78 42 337 6 1 11 11 43 336 90 291 60 313 6 181 39 19 348 120 157 127 231 360 42 235 247 101 117 24 44 85 83 17 224 312 15 62 79 166 199 135 191 109 36 21 266 189 118 222 266 232 202
244 208 243 58 55 102 130 175 210 198 222 276 82 74 61 48 26 303 11 30 340 321 296 26 341 2 352 11 17 353 330 327 335 24 22 198 35 16 6 340 17 24 79 356 34 330 116 170 341 35 16 342 238 184 266 211 188 2 83 227 47 82 117 117 133 281 95 137 232 116 217 175 104 301 198 193 170 164 179 194 162 167 117 180 219 219 208 214
300 325 296 45 344 103 64 156 239 236 326 70 61 115 266 71 352 329 350 333 291 207 306 32 145 17 7 1 353 9 326 59 332 4 91 7 129 316 13 335 320 41 348 149 98 358 15 74 350 63 207 168 151 32 310 26 11 113 160 164 82 86 82 308 87 104 129 65 185 260 227 318 188 251 198 216 141 141 120 147 175 169 201 213 221 205 186 180
270 275 196 333 33 98 155 126 220 298 293 65 109 102 347 302 60 26 347 278 282 258 356 120 67 26 18 45 283 358 359 37 323 6 44 333 69 6 57 331 300 344 350 335 13 336 331 105 325 299 357 292 29 21 53 314 354 41 59 44 227 67 44 102 181 177 106 158 96 302 52 245 345 91 134 97 72 58 63 56 56 48 56 38 37 35 29 46
226 218 14 290 4 274 100 143 343 47 55 65 25 58 276 24 65 132 143 286 280 303 49 344 346 68 15 163 9 2 328 31 15 4 74 324 68 24 31 4 344 316 336 331 73 103 299 216 121 283 318 53 15 10 31 354 341 345 12 16 14 31 207 142 53 82 134 162 146 135 301 255 297 315 42 75 74 73 76 83 58 56 58 70 72 56 34 354
104 94 302 56 337 115 200 352 43 27 69 136 53 106 256 214 327 136 111 114 266 232 316 1 340 75 286 172 31 14 1 29 14 42 16 48 16 341 73 23 343 323 326 291 39 355 40 25 102 355 30 29 223 301 236 36 311 72 78 87 206 358 18 49 301 115 53 84 171 117 206 336 269 343 49 99 85 102 80 69 52 23 47 79 91 91 151 360
278 50 296 336 196 49 21 57 27 357 68 76 74 16 107 179 293 30 289 157 236 286 180 292 343 39 35 65 219 345 31 43 356 60 17 67 348 73 309 5 330 252 336 33 335 5 117 57 80 55 28 63 114 104 12 355 314 307 15 68 226 208 155 60 88 276 16 43 127 205 106 269 240 328 7 102 115 116 117 88 78 9 353 38 20 35 46 59
21 153 211 15 287 334 64 76 60 45 62 28 298 355 12 210 279 343 340 198 284 220 264 88 289 6 37 41 283 35 359 91 345 67 107 75 149 221 290 339 310 323 209 329 47 20 202 68 68 42 111 119 138 74 360 35 55 19 317 292 22 67 157 156 177 193 92 321 21 347 73 258 274 284 296 144 130 198 228 180 249 295 296 2 25 30 45 3
295 32 328 202 193 149 86 95 92 76 106 296 87 137 311 286 334 261 117 357 353 11 339 6 237 14 360 307 293 46 282 90 360 84 114 342 126 154 321 357 342 24 17 288 87 309 67 333 102 143 29 340 326 342 336 313 66 327 106 66 176 292 177 162 49 335 88 237 161 112 161 257 264 151 257 239 210 261 226 206 180 279 329 22 51 11 342 331
48 227 284 20 34 49 93 273 117 128 142 140 165 127 241 215 311 16 330 356 269 335 312 24 46 316 359 343 341 273 355 74 142 303 172 189 140 165 184 33 6 70 36 61 308 290 75 316 22 145 138 116 164 187 195 195 132 139 95 116 7 60 22 70 124 186 137 247 108 136 232 269 331 343 244 230 212 243 191 167 184 166 197 256 343 354 333 336
129 66 302 25 7 43 74 105 80 119 133 152 88 340 94 108 194 144 317 182 51 242 13 75 334 326 299 335 17 26 27 356 70 117 46 24 120 126 100 89 60 53 88 269 325 289 101 59 54 92 163 191 159 144 324 351 281 170 260 219 156 351 159 287 171 51 190 189 134 261 138 274 271 256 247 234 206 228 11 36 85 102 84 76 46 13 335 304
308 79 17 112 30 41 74 46 115 131 147 216 99 148 65 70 160 133 254 329 113 339 50 45 269 22 338 323 15 58 11 4 356 67 19 336 351 96 21 63 49 82 323 285 20 360 113 78 6 71 58 77 350 333 317 319 360 48 116 273 100 100 36 42 91 168 295 94 290 20 358 50 55 97 50 28 33 31 37 45 42 33 27 14 338 313 307 304
88 237 115 226 132 161 137 360 81 80 57 82 119 304 146 133 215 138 181 75 104 243 19 272 50 53 13 51 315 29 5 29 22 20 331 47 319 50 73 346 16 314 268 7 351 78 95 105 267 64 353 292 319 302 324 323 38 338 331 13 10 160 50 73 312 29 44 115 200 330 7 349 276 37 349 3 56 29 42 39 51 44 323 310 300 304 297 293
69 94 68 253 76 328 55 142 100 104 80 88 102 154 142 170 114 21 15 164 236 142 184 48 11 20 16 348 10 51 28 29 6 58 40 337 15 313 358 9 299 347 27 15 17 147 91 50 161 118 137 360 346 352 338 43 323 350 259 275 267 60 218 201 271 37 86 237 239 291 321 271 254 275 289 292 71 35 330 334 321 309 269 248 313 285 286 290
228 181 58 360 79 109 177 157 116 156 99 217 95 260 142 167 115 174 6 2 119 347 267 83 130 94 313 358 17 78 37 59 208 329 352 10 325 34 41 123 293 338 23 38 332 293 98 203 129 235 109 329 349 66 42 45 53 351 302 332 311 86 23 236 224 242 77 301 271 240 266 289 275 227 227 108 151 293 345 303 267 272 354 334 280 281 280 279
324 325 195 129 78 75 88 124 153 213 125 288 116 218 109 130 136 129 89 63 22 66 14 128 156 165 69 78 70 80 34 38 55 78 41 37 110 251 98 302 1 309 346 10 27 307 57 174 104 167 89 304 65 37 73 37 52 103 296 287 251 190 248 227 191 214 151 209 98 86 340 269 260 7 316 271 233 271 258 259 279 283 264 285 269 269 275 284
285 188 137 290 97 246 169 60 229 60 139 314 79 147 119 129 130 141 93 63 44 50 20 13 102 356 140 81 67 94 26 52 67 59 51 112 107 66 54 51 17 28 324 359 255 37 22 132 119 157 83 219 303 28 25 0 352 330 276 230 193 195 197 157 226 186 208 155 123 164 219 203 214 7 37 306 232 239 251 123 336 298 267 243 254 256 266 273